[[{"header":{"parameterUnit":"m.s-1","parameterCategory":1,"la1":30.2991,"la2":30.254,"lo1":-89.0895,"lo2":-89.0444,"dy":0.0017,"dx":0.0017,"nx":28,"ny":28,"refTime":"2024-03-14T03:00:00:Z","depth":0,"parameterNumber":2,"parameterNumberName":"U-component_of_WINDS"},"data":[0,0,0,0,0,0,0,0,0,0,0,0,0,0,0,0,0,0,0,0,0,0,0,0,0,0,0,0,0,0,0,0,0,0,0,0,0,0,0,0,0,0,0,0,0,0,0,0,0,0,0,0,0,0,0,0,0,0,-2.4078,-2.4078,0,-2.4105,-2.4106,-2.4106,-2.4079,-2.4078,-2.4077,-2.4076,-2.4103,-2.4104,-2.4106,0,0,0,0,0,0,0,0,0,0,0,0,0,-2.4002,-2.4004,-2.4078,-2.4078,-2.4079,-2.4105,-2.4106,-2.4106,-2.408,-2.4078,-2.4077,-2.4076,-2.4102,-2.4104,-2.4106,0,0,0,0,0,0,0,0,0,0,0,0,0,-2.4033,-2.4004,-2.4078,-2.4069,-2.4068,-2.4105,-2.4106,-2.4106,-2.408,-2.4078,-2.4077,-2.4075,-2.4101,-2.4104,-2.4106,-2.4153,0,0,-2.4114,-2.4115,0,0,0,0,0,0,0,0,-2.4031,-2.4036,-2.407,-2.4069,-2.4069,-2.4087,-2.4089,-2.4122,-2.408,-2.4075,-2.4076,-2.4074,-2.4099,-2.4101,-2.411,-2.4155,-2.4156,-2.4114,-2.4116,-2.4117,-2.4118,0,0,0,0,0,0,0,-2.4029,-2.4034,-2.4089,-2.407,-2.407,-2.4063,-2.4066,-2.4095,-2.4095,-2.4076,-2.4074,-2.4078,-2.4098,-2.4108,-2.411,-2.4156,-2.4114,-2.4116,-2.4118,-2.4119,-2.4241,-2.4243,0,0,0,0,0,0,-2.4028,-2.4033,-2.4088,-2.409,-2.4046,-2.4066,-2.4069,-2.4083,-2.4095,-2.4095,-2.4079,-2.4076,-2.4104,-2.4107,-2.4111,-2.4167,-2.4117,-2.4119,-2.4121,-2.4239,-2.4242,-2.4243,0,0,0,0,0,0,-2.4027,-2.4033,-2.4087,-2.4061,-2.4067,-2.4069,-2.4085,-2.4084,-2.4094,-2.4098,-2.4097,-2.4088,-2.4103,-2.4108,-2.4143,-2.4167,-2.412,-2.4123,-2.4237,-2.424,-2.4243,-2.4278,0,0,0,0,0,0,-2.4024,-2.4033,-2.4051,-2.4061,-2.4069,-2.4119,-2.4087,-2.4086,-2.4098,-2.4095,-2.4106,-2.4107,-2.4102,-2.414,-2.4146,-2.417,-2.4125,-2.4235,-2.4239,-2.4242,-2.4275,-2.4282,-2.4287,0,0,0,0,0,-2.4022,-2.4059,-2.4052,-2.4059,-2.4091,-2.412,-2.4124,-2.4118,-2.41,-2.4118,-2.4121,-2.4106,-2.4164,-2.4144,-2.415,-2.4175,-2.4234,-2.4238,-2.4241,-2.4272,-2.428,-2.4287,0,0,0,0,0,0,-2.405,-2.406,-2.4052,-2.4094,-2.4107,-2.4116,-2.4138,-2.4128,-2.4145,-2.4141,-2.4133,-2.4136,-2.4173,-2.4178,-2.4155,-2.4222,-2.4196,-2.4201,-2.4217,-2.4225,-2.4231,-2.4228,-2.4127,0,0,0,0,0,-2.4062,-2.4085,-2.4092,-2.4129,-2.4136,-2.4136,-2.4148,-2.4143,-2.4155,-2.416,-2.4165,-2.4178,-2.4198,-2.4212,-2.4232,-2.4276,-2.4278,-2.4297,-2.4303,-2.4308,-2.4312,-2.4336,-2.4344,-2.4256,-2.4256,-2.4256,0,0,-2.4085,-2.4094,-2.4108,-2.4135,-2.4144,-2.4168,-2.414,-2.4167,-2.4184,-2.4164,-2.4198,-2.4203,-2.4216,-2.4256,-2.4274,-2.4261,-2.4338,-2.4313,-2.4317,-2.4319,-2.4341,-2.4349,-2.4357,-2.4259,-2.4258,-2.4258,0,0,-2.4139,-2.4149,-2.418,-2.419,-2.4204,-2.4204,-2.4212,-2.4223,-2.4225,-2.426,-2.4245,-2.4266,-2.4302,-2.4312,-2.4322,-2.4382,-2.4369,-2.4389,-2.4421,-2.4444,-2.4451,-2.4457,-2.4477,-2.4485,-2.4393,-2.4393,-2.4393,0,-2.4166,-2.4202,-2.4197,-2.4224,-2.4236,-2.4221,-2.4252,-2.4262,-2.4282,-2.429,-2.4276,-2.4322,-2.4329,-2.4371,-2.4386,-2.4395,-2.4403,-2.4386,-2.4451,-2.4457,-2.4462,-2.4481,-2.4489,-2.4396,-2.4395,-2.4395,-2.4395,0,-2.4233,-2.4259,-2.4282,-2.4302,-2.4317,-2.4346,-2.4346,-2.4362,-2.4356,-2.4358,-2.4393,-2.4402,-2.4423,-2.4433,-2.4427,-2.4475,-2.4466,-2.4452,-2.4425,-2.4473,-2.4491,-2.4498,-2.4399,-2.4398,-2.4397,-2.4397,0,0,-2.4304,-2.4323,-2.4331,-2.434,-2.4356,-2.4375,-2.4404,-2.4425,-2.4438,-2.4454,-2.4477,-2.4509,-2.4496,-2.4507,-2.4503,-2.4523,-2.4569,-2.4506,-2.4506,-2.4516,-2.4621,-2.4631,-2.4639,-2.4562,-2.4563,-2.4565,-2.462,0,-2.4357,-2.4408,-2.4405,-2.4452,-2.4475,-2.4462,-2.4487,-2.4499,-2.4502,-2.4522,-2.4525,-2.4548,-2.4529,-2.4536,-2.4556,-2.4559,-2.459,-2.4556,-2.4583,-2.4584,-2.4578,-2.4649,-2.4659,-2.471,-2.4627,-2.4628,-2.4629,0,-2.4426,-2.4444,-2.4494,-2.4506,-2.4516,-2.4539,-2.4558,-2.4578,-2.4591,-2.4592,-2.4606,-2.4598,-2.4628,-2.4603,-2.4642,-2.4619,-2.463,-2.4634,-2.4636,-2.4636,-2.4607,-2.465,-2.4727,-2.4734,-2.464,-2.4639,-2.4638,0,-2.4471,-2.4508,-2.4542,-2.455,-2.4567,-2.4583,-2.459,-2.4603,-2.4616,-2.4633,-2.4642,-2.4662,-2.4673,-2.4689,-2.4688,-2.467,-2.4728,-2.4703,-2.4728,-2.4728,-2.4739,-2.4738,-2.4817,-2.475,-2.475,-2.475,-2.475,0,-2.453,-2.456,-2.4562,-2.4583,-2.4617,-2.4614,-2.4648,-2.4653,-2.4665,-2.4687,-2.4677,-2.4698,-2.4695,-2.4716,-2.4715,-2.4748,-2.4753,-2.4754,-2.4753,-2.4754,-2.4753,-2.4759,-2.4755,-2.4752,-2.4751,-2.4751,-2.4751,0,-2.4584,-2.4587,-2.4623,-2.4636,-2.464,-2.4665,-2.4676,-2.4695,-2.4699,-2.4726,-2.4732,-2.4737,-2.4761,-2.4762,-2.4789,-2.4789,-2.4828,-2.4824,-2.4823,-2.4821,-2.4847,-2.4844,-2.493,-2.4941,-2.4869,-2.487,-2.487,0,-2.462,-2.4644,-2.466,-2.4674,-2.4682,-2.4705,-2.4719,-2.4718,-2.4733,-2.4751,-2.4769,-2.4792,-2.481,-2.4849,-2.4854,-2.4875,-2.4871,-2.49,-2.4873,-2.4874,-2.4869,-2.4867,-2.4869,-2.4904,-2.4905,-2.4906,-2.4906,0,-2.4684,-2.4685,-2.4705,-2.4727,-2.4744,-2.476,-2.4776,-2.4788,-2.4788,-2.4805,-2.483,-2.4845,-2.4873,-2.4896,-2.4917,-2.4924,-2.4915,-2.4915,-2.4922,-2.4921,-2.4919,-2.4919,-2.4835,-2.4912,-2.4911,-2.4911,-2.4911,-2.491,-2.4729,-2.4749,-2.4764,-2.4787,-2.4799,-2.4814,-2.4833,-2.484,-2.486,-2.4883,-2.4882,-2.4909,-2.4923,-2.495,-2.496,-2.4981,-2.4971,-2.4981,-2.4983,-2.4985,-2.4987,-2.4918,-2.4985,-2.4985,-2.4985,-2.4984,-2.4984,0,-2.4791,-2.4801,-2.4822,-2.4844,-2.4863,-2.4855,-2.4872,-2.4887,-2.4911,-2.4926,-2.4945,-2.4973,-2.4996,-2.5004,-2.5026,-2.5041,-2.5038,-2.5047,-2.5044,-2.5046,-2.4996,-2.4987,-2.5049,-2.5049,-2.5049,-2.5049,-2.5049,-2.5049,-2.4825,-2.4859,-2.4861,-2.4901,-2.491,-2.4936,-2.4947,-2.496,-2.4972,-2.5004,-2.5023,-2.5029,-2.5041,-2.5064,-2.5084,-2.5086,-2.5094,-2.5105,-2.5105,-2.5056,-2.505,-2.5043,-2.5035,-2.5107,-2.5107,-2.5153,-2.5154,-2.5154]},{"header":{"parameterUnit":"m.s-1","parameterCategory":1,"la1":30.2991,"la2":30.254,"lo1":-89.0895,"lo2":-89.0444,"dy":0.0017,"dx":0.0017,"nx":28,"ny":28,"refTime":"2024-03-14T03:00:00:Z","depth":0,"parameterNumber":3,"parameterNumberName":"V-component_of_WINDS"},"data":[0,0,0,0,0,0,0,0,0,0,0,0,0,0,0,0,0,0,0,0,0,0,0,0,0,0,0,0,0,0,0,0,0,0,0,0,0,0,0,0,0,0,0,0,0,0,0,0,0,0,0,0,0,0,0,0,0,0,2.0335,2.0335,0,2.039,2.0391,2.0392,2.0419,2.0419,2.0419,2.0419,2.0473,2.0474,2.0475,0,0,0,0,0,0,0,0,0,0,0,0,0,2.025,2.0252,2.0335,2.0335,2.0336,2.039,2.0391,2.0392,2.0419,2.0419,2.0419,2.0419,2.0472,2.0474,2.0476,0,0,0,0,0,0,0,0,0,0,0,0,0,2.0295,2.0252,2.0335,2.0356,2.0359,2.039,2.0391,2.0392,2.0419,2.0419,2.0419,2.0419,2.0472,2.0474,2.0476,2.0489,0,0,2.0482,2.0483,0,0,0,0,0,0,0,0,2.0292,2.0298,2.0352,2.0355,2.0358,2.0398,2.0381,2.0424,2.0419,2.0396,2.0419,2.0419,2.0448,2.0452,2.0462,2.0491,2.0494,2.0482,2.0484,2.0485,2.0485,0,0,0,0,0,0,0,2.0289,2.0295,2.0357,2.0353,2.0356,2.0363,2.0369,2.0389,2.0421,2.0398,2.04,2.0407,2.0449,2.046,2.0463,2.0494,2.0482,2.0484,2.0486,2.0486,2.0539,2.0539,0,0,0,0,0,0,2.0283,2.0293,2.0355,2.0358,2.0324,2.0364,2.0371,2.0385,2.0421,2.0426,2.0407,2.0408,2.0456,2.0461,2.0465,2.0485,2.0485,2.0487,2.0488,2.0539,2.0539,2.0539,0,0,0,0,0,0,2.0281,2.0288,2.0353,2.0326,2.0335,2.0366,2.0381,2.0386,2.0397,2.0427,2.0433,2.0412,2.0456,2.0462,2.0483,2.0487,2.0488,2.049,2.0539,2.0539,2.0539,2.0522,0,0,0,0,0,0,2.0278,2.0287,2.0293,2.0326,2.0336,2.037,2.0381,2.0387,2.0401,2.0403,2.0434,2.0439,2.0457,2.048,2.0486,2.049,2.0491,2.0539,2.0539,2.0539,2.0522,2.0521,2.0521,0,0,0,0,0,2.0275,2.0284,2.0293,2.03,2.0344,2.037,2.0376,2.0398,2.0401,2.0407,2.0427,2.0438,2.0485,2.0482,2.0488,2.0493,2.0539,2.0539,2.0539,2.0523,2.0521,2.0521,0,0,0,0,0,0,2.0249,2.0289,2.0299,2.0319,2.0341,2.0375,2.0383,2.0395,2.0416,2.0417,2.0442,2.0448,2.0468,2.0482,2.0478,2.0509,2.0513,2.0515,2.0498,2.0498,2.0497,2.0493,2.0493,0,0,0,0,0,2.0245,2.0264,2.0298,2.0313,2.0324,2.0351,2.0364,2.0379,2.0402,2.0411,2.0432,2.0454,2.0474,2.0486,2.0506,2.0524,2.0532,2.0531,2.053,2.0529,2.053,2.0543,2.0543,2.054,2.054,2.054,0,0,2.0238,2.0263,2.0273,2.0308,2.0327,2.0346,2.0359,2.0378,2.0392,2.0414,2.0436,2.0452,2.0478,2.0498,2.0508,2.0511,2.0533,2.053,2.0529,2.053,2.0543,2.0543,2.0543,2.054,2.054,2.054,0,0,2.0235,2.0255,2.0271,2.029,2.032,2.0338,2.0342,2.0374,2.0387,2.0409,2.0427,2.0443,2.0477,2.0495,2.0509,2.0516,2.0527,2.0521,2.0517,2.0529,2.0529,2.0529,2.0533,2.0534,2.0522,2.0522,2.0522,0,2.0223,2.0253,2.0277,2.0296,2.0311,2.0334,2.035,2.0367,2.04,2.041,2.0414,2.0458,2.0476,2.0502,2.0504,2.0514,2.0519,2.0518,2.0527,2.0528,2.0528,2.0532,2.0533,2.0521,2.0521,2.0521,2.0521,0,2.0236,2.0257,2.0266,2.03,2.0316,2.0333,2.036,2.0374,2.0388,2.0406,2.043,2.0453,2.0479,2.0486,2.0499,2.0514,2.0516,2.0522,2.0528,2.0527,2.0531,2.0533,2.052,2.052,2.0521,2.0521,0,0,2.0217,2.0266,2.0269,2.0286,2.0321,2.0337,2.0355,2.0383,2.0394,2.0417,2.0434,2.0463,2.047,2.0486,2.0501,2.0511,2.0516,2.0517,2.0518,2.0517,2.0536,2.0531,2.0532,2.0524,2.0525,2.0525,2.0534,0,2.022,2.0256,2.0279,2.0305,2.0325,2.0348,2.0364,2.0387,2.0405,2.0424,2.0443,2.0464,2.0472,2.0482,2.0493,2.0513,2.0521,2.0513,2.054,2.0541,2.0534,2.0534,2.0529,2.0536,2.0536,2.0536,2.0536,0,2.0228,2.0252,2.0281,2.0316,2.0325,2.034,2.0367,2.0385,2.0412,2.0425,2.0443,2.0459,2.048,2.0483,2.0512,2.0507,2.0519,2.0531,2.0532,2.0535,2.0539,2.0539,2.0539,2.0541,2.0539,2.0539,2.0538,0,2.0213,2.0252,2.0276,2.0289,2.033,2.034,2.0357,2.0384,2.0399,2.0423,2.0434,2.0459,2.0473,2.0492,2.0514,2.0514,2.0541,2.0546,2.0552,2.0552,2.0557,2.0557,2.0561,2.0564,2.0564,2.0564,2.0564,0,2.0214,2.0231,2.027,2.0284,2.0304,2.033,2.0349,2.0368,2.0392,2.0411,2.0431,2.0447,2.0476,2.0495,2.0513,2.0535,2.0541,2.0551,2.0556,2.055,2.0549,2.0559,2.0559,2.0564,2.0564,2.0564,2.0564,0,2.02,2.0227,2.0253,2.0291,2.0301,2.0314,2.0346,2.036,2.038,2.0403,2.0409,2.044,2.0465,2.0489,2.0522,2.0534,2.0556,2.0561,2.0547,2.055,2.0555,2.0555,2.0566,2.0569,2.0569,2.0569,2.0569,0,2.0199,2.0213,2.0253,2.0267,2.0285,2.0307,2.0324,2.0351,2.0367,2.04,2.0411,2.0438,2.046,2.0499,2.0523,2.0549,2.0556,2.0558,2.0559,2.0554,2.0557,2.0556,2.0558,2.0557,2.0557,2.0557,2.0557,0,2.0195,2.0209,2.0232,2.0262,2.0281,2.0305,2.0329,2.034,2.0371,2.0389,2.0415,2.0433,2.0468,2.0494,2.0523,2.054,2.0554,2.0556,2.0559,2.0554,2.0545,2.0551,2.0546,2.0556,2.0556,2.0556,2.0556,2.0556,2.0189,2.0203,2.0234,2.0261,2.0282,2.0305,2.0321,2.0344,2.0367,2.0399,2.0413,2.044,2.0468,2.0508,2.0525,2.0546,2.055,2.0554,2.0555,2.0556,2.0555,2.0542,2.0552,2.0552,2.0552,2.0552,2.0552,0,2.0187,2.0209,2.0233,2.0268,2.0289,2.0302,2.033,2.0346,2.037,2.0396,2.0419,2.045,2.0476,2.0503,2.0531,2.0543,2.055,2.0549,2.0549,2.0553,2.055,2.0545,2.0543,2.0543,2.0543,2.0543,2.0543,2.0543,2.0189,2.0215,2.0232,2.0268,2.029,2.0318,2.0333,2.0354,2.0375,2.041,2.0432,2.0451,2.0477,2.0507,2.0532,2.0539,2.0549,2.0547,2.0556,2.0552,2.0553,2.0553,2.0549,2.0548,2.0548,2.0558,2.0558,2.0558]}]]